Jefferson, NC

3:10 AM EST on December 16, 2019 (GMT -0500)
Ashe County

Weather History for KGEV - August, 2019

Change the Weather History Date:

Friday, August 30, 2019

  Actual Average Record
Temperature  
Mean Temperature 63 °F -  
Max Temperature 77 °F 78 °F 87 °F (1993)
Min Temperature 49 °F 53 °F 35 °F (1986)
Degree Days  
Heating Degree Days 2    
Growing Degree Days 13 (Base 50)    
Moisture  
Dew Point 55 °F    
Average Humidity 77    
Maximum Humidity 100    
Minimum Humidity 49    
Precipitation  
Precipitation 0.00 in - - ()
Sea Level Pressure  
Sea Level Pressure 30.24 in    
Wind  
Wind Speed 1 mph ()    
Max Wind Speed 6 mph    
Max Gust Speed -    
Visibility 9.5 miles    
Events      
Averages and records for this station are not official NWS values.
T = Trace of Precipitation, MM = Missing Value Source: Averaged Metar Reports

Daily Weather History Graph

Daily Weather History Graph

Search for Another Location

Airport or City:

Astronomy

Aug. 30, 2019 Rise Set
Actual Time 6:55 AM EDT 7:56 PM EDT
Civil Twilight 6:28 AM EDT 8:23 PM EDT
Nautical Twilight 5:57 AM EDT 8:54 PM EDT
Astronomical Twilight 5:24 AM EDT 9:27 PM EDT
Moon 6:55 AM EDT (8/30) 8:32 PM EDT (8/30)
Length of Visible Light 13h 54m
Length of Day
13h 01m
New Moon, 0% of the Moon is Illuminated
Aug 30
New Moon
Sep 5
First Quarter
Sep 14
Full
Sep 21
Last Quarter
Sep 28
New

Hourly Weather History & Observations

Time (EDT) Temp. Dew Point Humidity Pressure Visibility Wind Dir Wind Speed Gust Speed Precip Events Conditions
12:15 AM 58.8 °F 52.0 °F 78% 30.21 in 10.0 mi Calm Calm - N/A   Clear
12:35 AM 56.5 °F 52.0 °F 85% 30.21 in 10.0 mi Calm Calm - N/A   Clear
12:55 AM 53.4 °F 51.4 °F 93% 30.21 in 10.0 mi NW 3.5 mph - N/A   Clear
1:15 AM 54.7 °F 52.7 °F 93% 30.22 in 10.0 mi Calm Calm - N/A   Clear
1:35 AM 55.6 °F 51.8 °F 87% 30.21 in 10.0 mi Calm Calm - N/A   Clear
1:55 AM 57.9 °F 51.8 °F 80% 30.21 in 10.0 mi Calm Calm - N/A   Clear
2:15 AM 52.5 °F 51.6 °F 97% 30.20 in 10.0 mi Calm Calm - N/A   Clear
2:35 AM 53.2 °F 51.8 °F 95% 30.20 in 10.0 mi Calm Calm - N/A   Clear
2:55 AM 52.2 °F 51.8 °F 99% 30.20 in 10.0 mi NW 3.5 mph - N/A   Clear
3:15 AM 51.8 °F 51.3 °F 98% 30.20 in 10.0 mi Calm Calm - N/A   Clear
3:35 AM 52.7 °F 51.8 °F 97% 30.20 in 10.0 mi Calm Calm - N/A   Clear
3:55 AM 52.9 °F 51.6 °F 95% 30.20 in 10.0 mi NW 3.5 mph - N/A   Clear
4:15 AM 53.6 °F 52.3 °F 95% 30.20 in 10.0 mi Calm Calm - N/A   Clear
4:35 AM 52.7 °F 51.8 °F 97% 30.20 in 10.0 mi Calm Calm - N/A   Clear
4:55 AM 50.9 °F 50.9 °F 100% 30.20 in 3.0 mi NW 3.5 mph - N/A   Scattered Clouds
5:15 AM 51.4 °F 51.1 °F 99% 30.20 in 10.0 mi Calm Calm - N/A   Scattered Clouds
5:35 AM 50.5 °F 50.5 °F 100% 30.20 in 7.0 mi Calm Calm - N/A   Scattered Clouds
5:55 AM 52.0 °F 51.6 °F 99% 30.21 in 10.0 mi Calm Calm - N/A   Clear
6:15 AM 49.3 °F 48.7 °F 98% 30.21 in 1.2 mi Calm Calm - N/A   Scattered Clouds
6:35 AM 50.7 °F 50.5 °F 99% 30.21 in 10.0 mi Calm Calm - N/A   Scattered Clouds
6:55 AM 49.3 °F 49.3 °F 100% 30.21 in 1.5 mi Calm Calm - N/A   Scattered Clouds
7:15 AM 49.8 °F 49.8 °F 100% 30.22 in 4.0 mi Calm Calm - N/A   Scattered Clouds
7:35 AM 52.0 °F 51.1 °F 97% 30.22 in 10.0 mi Calm Calm - N/A   Clear
7:55 AM 53.1 °F 51.8 °F 95% 30.24 in 10.0 mi NW 3.5 mph - N/A   Clear
8:15 AM 54.3 °F 53.1 °F 95% 30.24 in 10.0 mi Calm Calm - N/A   Clear
8:35 AM 57.2 °F 52.9 °F 85% 30.25 in 10.0 mi Calm Calm - N/A   Clear
8:55 AM 57.6 °F 53.8 °F 87% 30.25 in 10.0 mi Calm Calm - N/A   Clear
9:15 AM 57.7 °F 54.5 °F 89% 30.25 in 10.0 mi Calm Calm - N/A   Clear
9:55 AM 63.5 °F 59.0 °F 85% 30.27 in 10.0 mi Calm Calm - N/A   Clear
10:15 AM 64.8 °F 59.5 °F 83% 30.26 in 10.0 mi Calm Calm - N/A   Clear
10:35 AM 66.4 °F 59.4 °F 78% 30.26 in 10.0 mi Calm Calm - N/A   Clear
10:55 AM 67.6 °F 56.8 °F 68% 30.27 in 10.0 mi Calm Calm - N/A   Clear
11:15 AM 69.3 °F 57.4 °F 66% 30.27 in 10.0 mi NW 3.5 mph - N/A   Clear
11:35 AM 70.7 °F 55.6 °F 59% 30.27 in 10.0 mi NW 4.6 mph - N/A   Clear
11:55 AM 70.9 °F 51.4 °F 50% 30.26 in 10.0 mi NW 3.5 mph - N/A   Clear
12:15 PM 71.6 °F 53.2 °F 52% 30.27 in 10.0 mi Calm Calm - N/A   Clear
12:35 PM 72.0 °F 55.6 °F 56% 30.26 in 10.0 mi NW 4.6 mph - N/A   Clear
12:55 PM 73.2 °F 56.3 °F 55% 30.26 in 10.0 mi NW 4.6 mph - N/A   Clear
1:15 PM 74.3 °F 56.5 °F 54% 30.27 in 10.0 mi Calm Calm - N/A   Clear
1:35 PM 73.9 °F 56.3 °F 54% 30.26 in 10.0 mi Calm Calm - N/A   Clear
1:55 PM 75.0 °F 55.6 °F 51% 30.25 in 10.0 mi NW 4.6 mph - N/A   Clear
2:15 PM 75.2 °F 54.9 °F 49% 30.25 in 10.0 mi Calm Calm - N/A   Clear
2:35 PM 75.2 °F 56.5 °F 52% 30.24 in 10.0 mi Calm Calm - N/A   Clear
2:55 PM 75.2 °F 55.4 °F 50% 30.24 in 10.0 mi Calm Calm - N/A   Clear
3:15 PM 76.6 °F 58.6 °F 54% 30.23 in 10.0 mi Calm Calm - N/A   Clear
3:35 PM 75.7 °F 57.2 °F 52% 30.22 in 10.0 mi NW 4.6 mph - N/A   Clear
3:55 PM 76.6 °F 57.7 °F 52% 30.22 in 10.0 mi NW 3.5 mph - N/A   Clear
4:15 PM 76.6 °F 55.9 °F 49% 30.22 in 10.0 mi Calm Calm - N/A   Clear
4:35 PM 77.0 °F 58.3 °F 52% 30.22 in 10.0 mi NW 3.5 mph - N/A   Clear
4:55 PM 76.1 °F 59.0 °F 55% 30.22 in 10.0 mi NW 3.5 mph - N/A   Clear
5:15 PM 75.7 °F 57.6 °F 53% 30.21 in 10.0 mi Calm Calm - N/A   Clear
5:55 PM 75.0 °F 60.3 °F 60% 30.21 in 10.0 mi Calm Calm - N/A   Clear
6:15 PM 74.1 °F 61.2 °F 64% 30.22 in 10.0 mi Calm Calm - N/A   Clear
6:35 PM 72.5 °F 59.9 °F 64% 30.23 in 10.0 mi NW 3.5 mph - N/A   Clear
6:55 PM 71.2 °F 60.3 °F 68% 30.23 in 10.0 mi Calm Calm - N/A   Clear
7:15 PM 70.5 °F 60.1 °F 69% 30.24 in 10.0 mi Calm Calm - N/A   Clear
7:35 PM 70.7 °F 59.9 °F 69% 30.24 in 10.0 mi Calm Calm - N/A   Clear
7:55 PM 69.1 °F 59.4 °F 71% 30.24 in 10.0 mi Calm Calm - N/A   Clear
8:15 PM 67.5 °F 59.2 °F 75% 30.25 in 10.0 mi Calm Calm - N/A   Clear
8:35 PM 67.3 °F 59.5 °F 76% 30.25 in 10.0 mi Calm Calm - N/A   Clear
8:55 PM 67.1 °F 59.9 °F 78% 30.26 in 10.0 mi Calm Calm - N/A   Clear
9:15 PM 68.2 °F 59.4 °F 73% 30.27 in 10.0 mi Calm Calm - N/A   Clear
9:35 PM 67.1 °F 59.2 °F 76% 30.27 in 10.0 mi NW 4.6 mph - N/A   Clear
9:55 PM 68.2 °F 58.5 °F 71% 30.29 in 10.0 mi NW 5.8 mph - N/A   Clear
10:15 PM 68.4 °F 58.5 °F 71% 30.29 in 10.0 mi NW 3.5 mph - N/A   Clear
10:35 PM 64.4 °F 59.0 °F 83% 30.29 in 10.0 mi Calm Calm - N/A   Clear
10:55 PM 63.7 °F 59.0 °F 85% 30.30 in 10.0 mi Calm Calm - N/A   Clear
11:35 PM 63.5 °F 59.2 °F 86% 30.30 in 10.0 mi NW 3.5 mph - N/A   Clear
11:55 PM 61.3 °F 59.2 °F 93% 30.30 in 10.0 mi Calm Calm - N/A   Clear